Weather History for KBIX - July, 2012

Change the Weather History Date:

Monday, July 9, 2012

  Actual Average Record
Temperature  
Mean Temperature 82 °F -  
Max Temperature 89 °F 91 °F 102 °F (1962)
Min Temperature 75 °F 75 °F 70 °F (1950)
Cooling Degree Days 17    
Growing Degree Days 32 (Base 50)    
Moisture  
Dew Point 73 °F    
Average Humidity 74    
Maximum Humidity 87    
Minimum Humidity 55    
Precipitation  
Precipitation 0.00 in - - ()
Sea Level Pressure  
Sea Level Pressure 30.01 in    
Wind  
Wind Speed 4 mph (South)    
Max Wind Speed 14 mph    
Max Gust Speed -    
Visibility 10 miles    
Events Thunderstorm    
Averages and records for this station are not official NWS values.
T = Trace of Precipitation, MM = Missing Value Source: NWS Daily Summary

Daily Weather History Graph

Daily Weather History Graph

Search for Another Location

Airport or City:

Trip Planner

Search our weather history database for the weather conditions in past years. The results will help you decide how hot, cold, wet, or windy it might be!

Date:

Astronomy

Jul. 09, 2012 Rise Set
Actual Time 6:01 AM CDT 8:00 PM CDT
Civil Twilight 5:33 AM CDT 8:28 PM CDT
Nautical Twilight 5:00 AM CDT 9:01 PM CDT
Astronomical Twilight 4:25 AM CDT 9:36 PM CDT
Moon 11:49 PM CDT (7/9) 11:57 AM CDT (7/9)
Length of Visible Light 14h 54m
Length of Day
13h 59m
Waning Gibbous, 63% of the Moon is Illuminated
Jul 9
Waning Gibbous
Jul 10
Last Quarter
Jul 18
New
Jul 26
First Quarter
Aug 1
Full

Hourly Weather History & Observations

Time (CDT) Temp. Heat Index Dew Point Humidity Pressure Visibility Wind Dir Wind Speed Gust Speed Precip Events Conditions
12:55 AM 76.6 °F - 72.3 °F 86% 30.04 in 10.0 mi North 3.5 mph - N/A   Clear
1:55 AM 76.1 °F - 71.6 °F 86% 30.03 in 10.0 mi Variable 3.5 mph - N/A   Clear
2:55 AM 75.4 °F - 71.4 °F 87% 30.01 in 10.0 mi Calm Calm - N/A   Overcast
3:55 AM 75.7 °F - 71.8 °F 87% 30.01 in 10.0 mi Calm Calm - N/A   Mostly Cloudy
4:55 AM 75.9 °F - 71.6 °F 86% 30.01 in 10.0 mi ENE 3.5 mph - N/A   Partly Cloudy
5:55 AM 75.4 °F - 70.9 °F 86% 30.02 in 10.0 mi ENE 3.5 mph - N/A   Clear
6:55 AM 76.3 °F - 72.1 °F 87% 30.03 in 10.0 mi ENE 3.5 mph - N/A   Clear
7:55 AM 80.1 °F 84.1 °F 72.7 °F 78% 30.04 in 10.0 mi ENE 4.6 mph - N/A   Clear
8:55 AM 82.9 °F 88.8 °F 73.2 °F 72% 30.04 in 10.0 mi Calm Calm - N/A Thunderstorm Partly Cloudy
9:43 AM 86.0 °F 93.4 °F 73.4 °F 66% 30.03 in 10.0 mi NNE 4.6 mph - N/A Thunderstorm Mostly Cloudy
9:47 AM 86.0 °F 93.4 °F 73.4 °F 66% 30.03 in 10.0 mi NNE 3.5 mph - N/A Thunderstorm Scattered Clouds
9:50 AM 86.0 °F 93.4 °F 73.4 °F 66% 30.03 in 10.0 mi North 3.5 mph - N/A Thunderstorm Mostly Cloudy
9:52 AM 86.0 °F 93.4 °F 73.4 °F 66% 30.03 in 10.0 mi Calm Calm - N/A Thunderstorm Mostly Cloudy
9:55 AM 85.8 °F 93.0 °F 73.4 °F 66% 30.03 in 10.0 mi Calm Calm - N/A Thunderstorm Mostly Cloudy
9:56 AM 86.0 °F 93.4 °F 73.4 °F 66% 30.03 in 10.0 mi Calm Calm - N/A Thunderstorm Mostly Cloudy
9:57 AM 86.0 °F 93.4 °F 73.4 °F 66% 30.03 in 10.0 mi Calm Calm - N/A Thunderstorm Mostly Cloudy
10:05 AM 86.0 °F 93.4 °F 73.4 °F 66% 30.04 in 10.0 mi South 8.1 mph - N/A Thunderstorm Mostly Cloudy
10:55 AM 88.3 °F 97.9 °F 74.7 °F 64% 30.03 in 10.0 mi South 11.5 mph - N/A Thunderstorm Clear
11:24 AM 89.6 °F 98.2 °F 73.4 °F 59% 30.02 in 10.0 mi South 9.2 mph - N/A Thunderstorm Thunderstorm
11:39 AM 89.6 °F 96.2 °F 71.6 °F 55% 30.01 in 10.0 mi SSW 8.1 mph - N/A Thunderstorm Partly Cloudy
11:55 AM 86.2 °F 94.2 °F 73.9 °F 67% 30.00 in 10.0 mi South 13.8 mph - N/A   Scattered Clouds
12:55 PM 86.2 °F 94.2 °F 74.1 °F 67% 30.02 in 10.0 mi Variable 4.6 mph - N/A Thunderstorm Scattered Clouds
1:55 PM 83.8 °F 89.8 °F 72.7 °F 69% 30.03 in 10.0 mi WSW 6.9 mph - N/A   Scattered Clouds
2:55 PM 82.9 °F 88.3 °F 72.1 °F 70% 30.01 in 10.0 mi Calm Calm - N/A   Partly Cloudy
3:55 PM 81.3 °F 86.5 °F 73.6 °F 77% 30.00 in 10.0 mi WSW 6.9 mph - N/A   Scattered Clouds
3:58 PM 80.6 °F 85.4 °F 73.4 °F 79% 30.00 in 10.0 mi SW 6.9 mph - N/A   Mostly Cloudy
4:08 PM 80.6 °F 85.4 °F 73.4 °F 79% 30.00 in 10.0 mi Variable 3.5 mph - N/A   Mostly Cloudy
4:09 PM 80.6 °F 85.4 °F 73.4 °F 79% 30.00 in 10.0 mi Calm Calm - N/A   Mostly Cloudy
4:27 PM 80.6 °F 85.4 °F 73.4 °F 79% 30.00 in 10.0 mi Variable 3.5 mph - N/A   Mostly Cloudy
4:33 PM 78.8 °F - 73.4 °F 83% 30.00 in 10.0 mi Variable 3.5 mph - N/A   Mostly Cloudy
4:37 PM 78.8 °F - 71.6 °F 78% 29.99 in 10.0 mi Calm Calm - N/A   Scattered Clouds
4:55 PM 79.3 °F - 72.1 °F 79% 29.99 in 10.0 mi NE 3.5 mph - N/A   Partly Cloudy
5:55 PM 79.7 °F - 72.3 °F 78% 29.98 in 10.0 mi NE 3.5 mph - N/A   Clear
6:55 PM 81.9 °F 85.6 °F 69.8 °F 67% 29.97 in 10.0 mi South 8.1 mph - N/A   Clear
7:55 PM 81.9 °F 85.4 °F 69.4 °F 66% 29.98 in 10.0 mi SW 8.1 mph - N/A   Scattered Clouds
8:55 PM 81.1 °F 85.6 °F 72.0 °F 74% 29.99 in 10.0 mi SSW 8.1 mph - N/A   Mostly Cloudy
9:55 PM 81.1 °F 86.2 °F 73.4 °F 77% 30.01 in 10.0 mi SW 8.1 mph - N/A   Mostly Cloudy
10:55 PM 81.1 °F 86.2 °F 73.2 °F 77% 29.99 in 10.0 mi SSW 9.2 mph - N/A   Overcast
11:55 PM 81.5 °F 86.7 °F 73.4 °F 76% 29.98 in 10.0 mi SW 10.4 mph - N/A   Overcast